World > North America > United States > Mississippi

Hourly Pinebluff, MS Regional Weather

Feedback E-mail the Weather

Quick WX

Pinebluff, MS Weather Maps

°F °C°F °C
Pinebluff Weather Map
UTC Time: 6/27/2022, 17:21
Your Time:

Pinebluff, MS Regional Weather

Expires:202206271800;;283959
ASUS44 KJAN 271710
RWRMS 

MISSISSIPPI HOURLY WEATHER ROUNDUP
NATIONAL WEATHER SERVICE JACKSON MS
1200 PM CDT MON JUN 27 2022

NOTE: "FAIR: INDICATES FEW OR NO CLOUDS BELOW 12,000 FEET WITH NO
SIGNIFICANT WEATHER AND/OR OBSTRUCTIONS TO VISIBILITY.


MSZ003>006-009-014>017-022>024-029>033-037>039-271800-
NORTHEAST MISSISSIPPI
  
CITY           SKY/WX    TMP DP  RH WIND       PRES   REMARKS
ABERDEEN       PTSUNNY   81  75  83 N10       30.15F                  
COLUMBUS AFB   PTSUNNY   84  73  70 N7        30.10S HX  91           
CORINTH        SUNNY     82  61  47 N12       30.18S                  
GOLDN TRIANGLE PTSUNNY   82  73  74 NW8       30.14S                  
TUPELO         MOSUNNY   87  65  47 N14       30.15S                  
$$


SKY/WX - Weather  TMP - Temperature  DP - Dew Point  RH - Humidity
WIND - Wind Direction/Speed PRES - Barometric Pressure VSB - Visibility
WCI - Wind Chill Index E13G22 Wind - East Wind 13 mph/Gusts of 22 mph

Trending Headlines

Pinebluff Radar Loop



Pinebluff Quick Facts


National Two Day Weather Forecast


E-mail the Pinebluff Weather Forecast

Voice your opinion or tell us about page issues...